Regional Weather Roundup
Issued by NWS Northern Indiana

Home | Current Version | Previous Version | Graphics & Text | Print | Product List | Glossary On
Versions: 1 2 3 4 5 6 7 8 9 10 11 12 13 14 15 16 17 18 19 20 21 22 23 24 25 26 27 28 29 30 31 32 33 34 35 36 37 38 39 40 41 42 43 44 45 46 47 48 49 50
000
ASUS43 KIWX 212301
RWRIWX

KIWX WEATHER ROUNDUP
NATIONAL WEATHER SERVICE NORTHERN INDIANA
700 PM EDT MON AUG 21 2017

NOTE: "FAIR" INDICATES FEW OR NO CLOUDS BELOW 12,000 FEET WITH NO
SIGNIFICANT WEATHER AND/OR OBSTRUCTIONS TO VISIBILITY.

* THESE STATIONS ARE NOT UNDER NWS QUALITY CONTROL. THEY ALSO MAY NOT
  REPORT WEATHER SUCH AS PRECIPITATION OR FOG.

INZ001>027-220000-
NORTHERN INDIANA

CITY           SKY/WX    TMP DP  RH WIND       PRES   REMARKS
GARY*          PTSUNNY   84  70  61 S9        30.01R
MICHIGAN CITY* CLOUDY    82  70  65 S3        30.01R
SOUTH BEND     PTSUNNY   82  72  71 S12       30.02R
ELKHART*       CLOUDY    82  70  65 S12       30.02R
GOSHEN         CLOUDY    82  68  62 S8        30.02R
MONTICELLO*    CLOUDY    83  73  71 S8        30.02S
FORT WAYNE     PTSUNNY   84  72  67 S9        30.04F
PERU/GRISSOM   MOSUNNY   83  74  73 S9        30.03S

$$
INZ028>050-220000-
CENTRAL INDIANA

CITY           SKY/WX    TMP DP  RH WIND       PRES   REMARKS
LAFAYETTE      PTSUNNY   82  70  66 S7        30.03S
KOKOMO*        MOSUNNY   81  74  79 S12       30.06S
MUNCIE*        SUNNY     80  70  71 S9        30.07F
INDIANAPOLIS   PTSUNNY   80  70  71 S8        30.06F

$$
MIZ043>046-050>051-056>058-064>065-071>073-077>080-220000-
SOUTHWEST LOWER MICHIGAN

CITY           SKY/WX    TMP DP  RH WIND       PRES   REMARKS
BATTLE CREEK   CLOUDY    82  70  66 S7        30.01S
BENTON HARBOR  MOSUNNY   82  69  64 S8        29.99R
COLDWATER*     MOSUNNY   82  66  59 SW5       30.03R
HILLSDALE*     PTSUNNY   81  66  61 S5        30.02R
HOLLAND        CLOUDY    79  72  79 SW6       29.98R
GRAND RAPIDS   CLOUDY    81  72  74 S8        29.97F
KALAMAZOO      CLOUDY    82  66  58 S7        30.00S
STURGIS*       MOSUNNY   81  69  68 S7        30.01S
THREE RIVERS*  FAIR      83  67  58 S6        30.02R

$$
OHZ001>008-015>018-024>025-220000-
NORTHWEST OHIO

CITY           SKY/WX    TMP DP  RH WIND       PRES   REMARKS
DEFIANCE       MOSUNNY   84  70  62 S9        30.02F
FINDLAY        MOSUNNY   82  70  66 S13       30.04F
TOLEDO EXPRESS SUNNY     84  72  67 SW7       30.00F
TOLEDO METCALF SUNNY     84  74  71 S12       30.01F
LIMA           MOSUNNY   81  73  76 S10       30.07F

$$
AND FOR LAKE MICHIGAN COASTAL AND OPEN LAKE BUOY OBSERVATIONS

STATION/POSITION TEMP    WIND        PRES    VSBY  WAVE
                 AIR SEA DIR/SP/G                  HT/PER
                 (F)     (DEG/KT/KT) (MB)    (MI)  (FT/S)
CALUMET HARBOR    85     180/ 11/ 15 1014.8R
MICHIGAN CITY     82     170/ 10/ 14   N/A
BURNS HARBOR      84     180/ 10/ 17 1016.3R
SAINT JOSEPH      85     210/  5/  9 1015.2
SOUTH LAKE BUOY   73 72  160/ 12/ 12 1014.4          1/ 3
4 MI NW BRIDGMAN  78 75  200/  6/  8 1015.3R         1
MICHIGAN CITY     80 76  180/ 10/ 12   N/A           1

$$
&&



USA.gov is the U.S. government's official web portal to all federal, state and local government web resources and services.